{"data":{"norad_id":66680,"epoch":"2026-09-19T10:45:25.546176Z","epoch_age_seconds":211730,"freshness":"STALE","line1":"1 66680U 25276Q   26262.44821234  .00003330  00000+0  15754-3 0  9997","line2":"2 66680  97.4121 334.1757 0006557  42.3123 317.8617 15.20038475 44725","mean_motion":15.20038475,"eccentricity":0.0006557,"inclination_deg":97.4121,"raan_deg":334.1757,"arg_perigee_deg":42.3123,"mean_anomaly_deg":317.8617,"bstar":0.00015754,"rev_number":4472,"period_min":94.734444139646,"perigee_km":501.21070111797,"apogee_km":510.23819702228,"semimajor_km":6883.8614490701,"source":"CELESTRAK","updated_at":"2026-09-21T09:00:16.123324Z"}}